Home   Weather   Bradenton   Past weeks

Flag for USA Past Weather in Bradenton, Florida, USA — Yesterday and Last 2 Weeks

Now
72 °F

Sunny.


Feels Like: 76 °F
Forecast: 60 / 78 °F
Wind: No wind

Location: Sarasota-Bradenton International Airport

Current Time: Jan 17, 2017 at 6:41:22 pm

Latest Report: Jan 17, 2017 at 5:53 pm


Visibility: 10 mi

Pressure: 30.17 "Hg

Humidity: 61%

Dew Point: 58 °F

Location of BradentonLocation

Past Weather in Bradenton — Graph

°F

Bradenton Temperature Yesterday

Maximum temperature yesterday: 78 °F (at 2:53 pm)
Minimum temperature yesterday: 62 °F (at 4:53 am)
Average temperature yesterday: 69 °F

High & Low Weather Summary for the Past Weeks

 TemperatureHumidityPressure
High81 °F (Jan 12, 1:53 pm)100% (Jan 4, 2:03 am)30.57 "Hg (Jan 4, 2:03 am)
Low37 °F (Jan 8, 4:53 am)31% (Jan 8, 1:53 pm)29.85 "Hg (Jan 4, 1:53 pm)
Average65 °F77%30.18 "Hg
* Reported Jan 2 4:53 pm — Jan 17 4:53 pm, Bradenton, Weather by CustomWeather, © 2017

Note: Actual official high and low records may vary slightly from our data, if they occured in-between our weather recording intervals... More about our weather records

Advertising

Bradenton Weather History for the Previous 24 Hours

Scroll right to see more
 ConditionsComfort  
Time TempWeatherWind HumidityBarometerVisibility
4:53 pm
Tue, Jan 17
75 °FSunny.7 mph55%30.17 "Hg10 mi
3:53 pm75 °FSunny.10 mph62%30.17 "Hg10 mi
2:53 pm77 °FSunny.12 mph58%30.16 "Hg10 mi
1:53 pm76 °FSunny.9 mph62%30.17 "Hg10 mi
12:53 pm75 °FSunny.12 mph64%30.19 "Hg10 mi
11:53 am78 °FSunny.12 mph54%30.21 "Hg10 mi
10:53 am77 °FSunny.14 mph58%30.23 "Hg10 mi
9:53 am73 °FSunny.9 mph69%30.24 "Hg10 mi
8:53 am67 °FSunny.7 mph85%30.22 "Hg10 mi
7:53 am60 °FSunny.6 mph93%30.21 "Hg10 mi
6:53 am58 °FClear.6 mph93%30.20 "Hg10 mi
5:53 am60 °FClear.No wind93%30.19 "Hg10 mi
4:53 am59 °FClear.5 mph93%30.18 "Hg10 mi
3:53 am61 °FClear.5 mph90%30.18 "Hg10 mi
2:53 am62 °FClear.5 mph86%30.19 "Hg10 mi
1:53 am63 °FClear.7 mph87%30.19 "Hg10 mi
12:53 am64 °FClear.7 mph84%30.20 "Hg10 mi
11:53 pm
Mon, Jan 16
64 °FClear.8 mph84%30.22 "Hg10 mi
10:53 pm66 °FPassing clouds.8 mph78%30.22 "Hg10 mi
9:53 pm67 °FPassing clouds.7 mph79%30.21 "Hg10 mi
8:53 pm67 °FPassing clouds.6 mph79%30.20 "Hg10 mi
7:53 pm68 °FClear.5 mph73%30.20 "Hg10 mi
6:53 pm71 °FClear.5 mph66%30.19 "Hg10 mi
Weather by CustomWeather, © 2017

See weather overviewHow to use our weather pages